[Iaude] MPEC X56: 2023 XU [a=1.34,e=0.41,i=2.5,H=29.5]

mpec at marsden.cfa.harvard.edu mpec at marsden.cfa.harvard.edu
Tue Dec 5 03:08:04 EST 2023


M.P.E.C. 2023-X56                              Issued 2023 December 5, 08:06 UT

     The Minor Planet Electronic Circulars contain information on unusual
         minor planets, routine data on comets and natural satellites,
         and occasional editorial announcements.  They are published
    on behalf of Division F of the International Astronomical Union by the
          Minor Planet Center, Smithsonian Astrophysical Observatory,
                          Cambridge, MA 02138, U.S.A.
			  
             Prepared using the Tamkin Foundation Computer Network

                              MPC at CFA.HARVARD.EDU
            URL https://www.minorplanetcenter.net/    ISSN 1523-6714

                                    2023 XU                                     


Observations:
     K23X00U  C2023 12 04.31664604 13 35.250+17 04 18.10         19.77GVEX056F51
     K23X00U  C2023 12 04.33254904 13 59.721+17 12 40.91         19.68GVEX056F51
     K23X00U*1C2023 12 04.35197304 13 49.055+17 19 47.86         19.51GVEX056G96
     K23X00U 1C2023 12 04.36221504 14 04.632+17 24 46.30         19.94GVEX056G96
     K23X00U 1C2023 12 04.36733304 14 12.430+17 27 14.00         20.22GVEX056G96
     K23X00U KC2023 12 04.47522104 16 54.037+18 15 10.44         20.00GVEX056I52
     K23X00U KC2023 12 04.47615604 16 55.441+18 15 33.59         19.89GVEX056I52
     K23X00U KC2023 12 04.47708904 16 56.845+18 15 57.02         19.73GVEX056I52
     K23X00U KC2023 12 04.47802204 16 58.210+18 16 19.20         19.98GVEX056I52
     K23X00U KC2023 12 05.32353104 32 51.947+22 21 15.44         20.43GVEX056I52
     K23X00U KC2023 12 05.32478504 32 52.696+22 21 29.09         20.79GVEX056I52
     K23X00U KC2023 12 05.32602704 32 53.394+22 21 42.52         21.76GVEX056I52
     K23X00U KC2023 12 05.32728304 32 54.085+22 21 57.24         21.41GVEX056I52

Observer details:
F51 Pan-STARRS 1, Haleakala.  Observers J. Herman, T. Lowe, P. Minguez, A.
    Schultz, I. Smith.  Measurers K. Chambers, T. de Boer, J. Fairlamb, H.
    Gao, M. Huber, C.-C. Lin, E. Magnier, Y. Ramanjooloo, R. Wainscoat, R.
    Weryk.  1.8-m Ritchey-Chretien + CCD.
G96 Mt. Lemmon Survey.  Observer J. K. Hogan.  Measurers E. C. Beshore, D.
    Fay, J. B. Fazekas, D. C. Fuls, A. R. Gibbs, A. D. Grauer, H. Groeller, J.
    K. Hogan, R. A. Kowalski, S. M. Larson, G. J. Leonard, D. Rankin, R. L.
    Seaman, F. C. Shelly, K. W. Wierzchos.  1.5-m reflector + 10K CCD.
I52 Steward Observatory, Mt. Lemmon Station.  Observer G. J. Leonard.
    Measurers E. C. Beshore, D. Fay, J. B. Fazekas, D. C. Fuls, A. R. Gibbs,
    A. D. Grauer, H. Groeller, J. K. Hogan, R. A. Kowalski, S. M. Larson, G.
    J. Leonard, D. Rankin, R. L. Seaman, F. C. Shelly, K. W. Wierzchos.  1.0-m
    prime focus + CCD.

Orbital elements:
2023 XU                                                  Earth MOID = 0.0020 AU
Epoch 2023 Sept. 13.0 TT = JDT 2460200.5                MPC                     
M 340.68102              (2000.0)            P               Q                  
n   0.63676741     Peri.  285.27522     +0.99841546     +0.03726130             
a   1.3380803      Node    72.60345     -0.01674617     +0.91215178             
e   0.4113958      Incl.    2.53270     -0.05372272     +0.40815526             
P   1.55           H   29.59          G   0.15           U   7                  
Residuals in seconds of arc
231204 F51  0.3+  0.6+    231204 I52  0.0   0.0     231205 I52  0.1+  0.1+
231204 F51  0.3-  0.3-    231204 I52  0.1+  0.1+    231205 I52  0.1+  0.4-
231204 G96  0.5+  0.4+    231204 I52  0.3+  0.5+    231205 I52  0.0   0.2+
231204 G96  0.5-  0.5-    231204 I52  0.1-  0.3-
231204 G96  0.4-  0.7-    231205 I52  0.6-  0.6+

Ephemeris:
2023 XU                  a,e,i = 1.34, 0.41, 3                   q = 0.7876
Date    TT    R. A. (2000) Decl.     Delta      r    Elong.  Phase     V
2023 11 05    16 55 35.8 -29 14 06   0.1990  0.8353    34.5   137.8    32.3
...
2023 11 20    17 09 54.4 -30 55 15   0.08748 0.9087    23.4   154.4    33.4
...
2023 11 28    17 23 54.8 -33 30 04   0.03270 0.9560    20.0   159.3    32.8
...
2023 12 04    04 01 02.4 +13 40 26   0.0083880.9939   167.7    12.2    19.9
2023 12 05    04 28 22.2 +21 12 05   0.01481 1.0004   176.4     3.5    20.8
2023 12 06    04 39 43.7 +24 03 46   0.02142 1.0068   177.6     2.4    21.5
...
2023 12 12    04 56 59.4 +28 02 58   0.06194 1.0463   173.7     5.9    24.1
...
2023 12 20    05 01 56.6 +28 51 59   0.1182  1.0999   168.1    10.6    25.8
...
2024 01 04    05 08 57.6 +28 56 48   0.2347  1.2006   155.3    20.0    27.8

A. U. Tomatic                (C) Copyright 2023 MPC           M.P.E.C. 2023-X56





More information about the Iaude mailing list